Weather History for Chios, Greece

Change the Weather History Date:

Tuesday, March 19, 2013

  Actual Average (LTBL) Record (LTBL)
Temperature  
Mean Temperature 56 °F -  
Max Temperature 62 °F 60 °F 75 °F (2014)
Min Temperature 50 °F 42 °F 23 °F (1997)
Degree Days  
Heating Degree Days 9    
Growing Degree Days 6 (Base 50)    
Moisture  
Dew Point 48 °F    
Average Humidity 69    
Maximum Humidity 82    
Minimum Humidity 55    
Precipitation  
Precipitation 0.00 in - - ()
Sea Level Pressure  
Sea Level Pressure 29.86 in    
Wind  
Wind Speed 9 mph ()    
Max Wind Speed 17 mph    
Max Gust Speed -    
Visibility 6.2 miles    
Events      
Averages and records for this station are not official NWS values.
T = Trace of Precipitation, MM = Missing Value Source: Averaged Metar Reports

Daily Weather History Graph

Daily Weather History Graph

Search for Another Location

Airport:

Trip Planner

Search our weather history database for the weather conditions in past years. The results will help you decide how hot, cold, wet, or windy it might be!

Date:

Astronomy

Mar. 19, 2013 Rise Set
Actual Time 6:20 AM EET 6:26 PM EET
Civil Twilight 5:54 AM EET 6:52 PM EET
Nautical Twilight 5:23 AM EET 7:23 PM EET
Astronomical Twilight 4:52 AM EET 7:54 PM EET
Moon 10:58 AM EET 12:53 AM EET
Length of Visible Light 12h 58m
Length of Day
12h 05m
Waxing Crescent, 47% of the Moon is Illuminated
Mar 19
Waxing Crescent
Mar 19
First Quarter
Mar 27
Full
Apr 3
Last Quarter
Apr 10
New

Hourly Weather History & Observations

Time (EET) Temp. Dew Point Humidity Pressure Visibility Wind Dir Wind Speed Gust Speed Precip Events Conditions
4:50 AM 50.0 °F 42.8 °F 76% 29.92 in 6.2 mi SSW 3.5 mph - N/A   Mostly Cloudy
5:50 AM 53.6 °F 41.0 °F 62% 29.92 in 6.2 mi South 9.2 mph - N/A   Mostly Cloudy
6:50 AM 53.6 °F 41.0 °F 62% 29.89 in 6.2 mi SSW 8.1 mph - N/A   Mostly Cloudy
7:50 AM 53.6 °F 42.8 °F 67% 29.89 in 6.2 mi SSW 4.6 mph - N/A   Mostly Cloudy
8:50 AM 53.6 °F 42.8 °F 67% 29.89 in 6.2 mi South 10.4 mph - N/A   Mostly Cloudy
9:50 AM 53.6 °F 42.8 °F 67% 29.89 in 6.2 mi South 9.2 mph - N/A   Mostly Cloudy
10:50 AM 62.6 °F 46.4 °F 55% 29.89 in 6.2 mi South 15.0 mph - N/A   Mostly Cloudy
11:50 AM 62.6 °F 50.0 °F 63% 29.86 in 6.2 mi South 13.8 mph - N/A   Scattered Clouds
12:50 PM 62.6 °F 51.8 °F 68% 29.86 in 6.2 mi South 16.1 mph - N/A   Scattered Clouds
1:50 PM 62.6 °F 51.8 °F 68% 29.86 in 6.2 mi South 16.1 mph - N/A   Scattered Clouds
2:50 PM 62.6 °F 51.8 °F 68% 29.83 in 6.2 mi South 17.3 mph - N/A   Scattered Clouds
3:50 PM 62.6 °F 48.2 °F 59% 29.83 in 6.2 mi South 16.1 mph - N/A   Scattered Clouds
4:50 PM 60.8 °F 51.8 °F 72% 29.83 in 6.2 mi South 15.0 mph - N/A   Mostly Cloudy
5:50 PM 60.8 °F 51.8 °F 72% 29.83 in 6.2 mi SSW 15.0 mph - N/A   Mostly Cloudy
6:50 PM 60.8 °F 51.8 °F 72% 29.83 in 6.2 mi South 9.2 mph - N/A   Scattered Clouds
7:50 PM 59.0 °F 51.8 °F 77% 29.83 in 6.2 mi SSW 9.2 mph - N/A   Partly Cloudy
8:50 PM 59.0 °F 51.8 °F 77% 29.83 in 6.2 mi SSW 8.1 mph - N/A   Partly Cloudy
9:50 PM 59.0 °F 53.6 °F 82% 29.86 in 6.2 mi SSW 9.2 mph - N/A   Partly Cloudy
10:50 PM 59.0 °F 53.6 °F 82% 29.86 in 6.2 mi SSW 11.5 mph - N/A   Scattered Clouds